1507132800.85,12748,13.5,73712.8,-1.47,-30.01,-33.49,0,*55
1507132802.1,12749,13.5,73722.5,-1.49,-30.01,-33.55,0,*57
1507132803.36,12750,13.5,73732.8,-1.49,-30.01,-33.67,0,*5E
1507132804.63,12751,13.5,73734.5,-1.49,-30.01,-33.49,0,*53
1507132805.89,12752,13.5,73736.0,-1.49,-30.01,-33.67,0,*5C
1507132807.12,12753,13.5,73738.5,-1.49,-30.11,-33.67,0,*5C
1507132808.4,12754,13.5,73740.0,-1.53,-30.17,-33.61,0,*50
1507132809.66,12755,13.5,73738.5,-1.51,-30.17,-33.73,0,*50
1507132810.88,12756,13.5,73746.3,-1.51,-30.23,-33.73,0,*54
1507132812.16,12757,13.5,73754.3,-1.53,-30.39,-33.89,0,*59
1507132813.44,12758,13.5,73752.8,-1.53,-30.51,-34.01,0,*5F
1507132814.69,12759,13.5,73754.0,-1.53,-30.61,-33.95,0,*57
1507132815.94,12760,13.5,73736.8,-1.53,-30.51,-33.95,0,*5E
1507132817.22,12761,13.5,73740.0,-1.53,-30.39,-33.89,0,*5C
1507132818.5,12762,13.5,73744.8,-1.53,-30.61,-34.01,0,*55
1507132819.73,12763,13.5,73746.3,-1.55,-30.67,-34.19,0,*5D
1507132820.97,12764,13.5,73736.8,-1.59,-30.67,-34.01,0,*5F
1507132822.21,12765,13.5,73736.3,-1.59,-30.77,-34.07,0,*59
1507132823.44,12766,13.5,73742.3,-1.59,-30.61,-33.95,0,*51
1507132824.67,12767,13.5,73742.8,-1.59,-30.61,-33.83,0,*57
1507132825.9,12768,13.5,73740.3,-1.59,-30.55,-33.95,0,*58
1507132827.18,12769,13.5,73740.8,-1.61,-30.51,-33.89,0,*5B
1507132828.46,12770,13.5,73738.0,-1.61,-30.61,-34.01,0,*57
1507132829.73,12771,13.5,73738.5,-1.61,-30.67,-34.01,0,*50
1507132831.01,12772,13.5,73736.5,-1.61,-30.61,-33.89,0,*52
1507132832.29,12773,13.5,73738.5,-1.61,-30.61,-33.89,0,*53
1507132833.53,12774,13.5,73740.8,-1.63,-30.67,-33.89,0,*50
1507132834.77,12775,13.5,73748.8,-1.63,-30.83,-34.01,0,*5C
1507132836.03,12776,13.5,73744.3,-1.63,-30.73,-33.89,0,*57
1507132837.26,12777,13.5,73744.3,-1.63,-30.83,-33.89,0,*59
1507132838.52,12778,13.5,73740.5,-1.65,-30.89,-33.95,0,*57
1507132839.77,12779,13.5,73736.8,-1.65,-30.77,-33.95,0,*57
1507132841.01,12780,13.5,73738.0,-1.67,-30.83,-34.01,0,*52
1507132842.27,12781,13.5,73740.5,-1.65,-30.77,-33.95,0,*50
1507132843.54,12782,13.5,73736.0,-1.67,-31.11,-34.01,0,*5A
1507132844.74,12783,13.5,73734.5,-1.67,-31.01,-34.13,0,*59
1507132845.94,12784,13.5,73728.3,-1.67,-31.01,-34.13,0,*5E
1507132847.15,12785,13.5,73736.0,-1.67,-31.01,-34.13,0,*5F
1507132848.38,12786,13.5,73732.3,-1.67,-30.95,-33.95,0,*59
1507132849.61,12787,13.5,73726.0,-1.67,-31.01,-34.01,0,*5E
1507132850.87,12788,13.5,73724.8,-1.69,-31.11,-34.13,0,*5D
1507132852.11,12789,13.5,73724.0,-1.69,-31.17,-34.13,0,*5A
1507132853.34,12790,13.5,73726.5,-1.71,-31.17,-34.01,0,*58
1507132854.6,12791,13.5,73722.3,-1.69,-30.45,-33.31,0,*52
1507132855.83,12792,13.5,73726.0,-1.69,-30.23,-33.03,0,*50
1507132857.08,12793,13.5,73720.3,-1.69,-30.23,-33.09,0,*5B
1507132858.34,12794,13.5,73712.8,-1.69,-30.27,-33.09,0,*58
1507132859.62,12795,13.5,73704.5,-1.69,-30.39,-33.27,0,*5A
1507132860.87,12796,13.5,73714.3,-1.69,-30.39,-33.15,0,*58
1507132862.15,12797,13.5,73716.8,-1.69,-30.39,-33.09,0,*54
1507132863.39,12798,13.5,73724.5,-1.69,-30.27,-32.91,0,*54
1507132864.64,12799,13.5,73724.8,-1.65,-30.51,-33.03,0,*52
1507132865.85,12800,13.5,73718.8,-1.67,-30.45,-33.15,0,*5D
1507132867.05,12801,13.5,73710.0,-1.67,-30.45,-33.15,0,*5C
1507132868.29,12802,13.5,73698.0,-1.65,-30.67,-33.37,0,*5D
1507132869.55,12803,13.5,73704.3,-1.67,-30.61,-33.27,0,*59
1507132870.84,12804,13.5,73690.8,-1.65,-30.77,-33.27,0,*5B
1507132872.08,12805,13.5,73694.3,-1.67,-30.83,-33.31,0,*54
1507132873.37,12806,13.5,73696.3,-1.65,-30.95,-33.43,0,*57
1507132874.58,12807,13.5,73698.3,-1.67,-31.17,-33.67,0,*59
1507132875.81,12808,13.5,73692.3,-1.67,-31.29,-33.77,0,*5A
1507132877.07,12809,13.5,73690.0,-1.67,-31.11,-33.61,0,*57
1507132878.28,12810,13.5,73704.8,-1.67,-31.29,-33.67,0,*52
1507132879.49,12811,13.5,73712.8,-1.67,-31.33,-33.83,0,*52
1507132880.75,12812,13.5,73710.3,-1.65,-31.57,-34.07,0,*5A
1507132881.96,12813,13.5,73716.5,-1.67,-31.45,-33.95,0,*56
1507132883.17,12814,13.5,73722.3,-1.67,-31.45,-33.83,0,*56
1507132884.4,12815,13.5,73726.8,-1.71,-31.39,-33.83,0,*5B
1507132885.63,12816,13.5,73722.8,-1.71,-31.39,-33.83,0,*58
1507132886.92,12817,13.5,73736.0,-1.69,-31.11,-33.49,0,*5C
1507132888.17,12818,13.5,73734.5,-1.69,-31.29,-33.61,0,*52
1507132889.41,12819,13.5,73730.5,-1.69,-31.33,-33.67,0,*5E
1507132890.67,12820,13.5,73720.3,-1.69,-31.45,-33.77,0,*54
1507132891.93,12821,13.5,73728.3,-1.71,-31.51,-33.73,0,*5D
1507132893.21,12822,13.5,73746.8,-1.69,-31.51,-33.77,0,*53
1507132894.44,12823,13.5,73734.5,-1.71,-31.51,-33.83,0,*50
1507132895.67,12824,13.5,73722.5,-1.71,-31.51,-33.83,0,*57
1507132896.93,12825,13.5,73716.0,-1.71,-31.51,-33.73,0,*59
1507132898.16,12826,13.5,73720.8,-1.71,-31.57,-33.83,0,*53
1507132899.4,12827,13.5,73728.0,-1.71,-31.67,-33.89,0,*5B
1507132900.68,12828,13.5,73734.3,-1.73,-31.73,-34.01,0,*54
1507132901.91,12829,13.5,73738.0,-1.73,-31.67,-33.83,0,*5D
1507132903.12,12830,13.5,73736.5,-1.75,-31.79,-33.95,0,*5B
1507132904.4,12831,13.5,73728.8,-1.73,-31.57,-33.49,0,*51
1507132905.62,12832,13.5,73732.0,-1.73,-31.67,-33.83,0,*57
1507132906.88,12833,13.5,73732.3,-1.73,-31.67,-33.73,0,*59
1507132908.11,12834,13.5,73734.8,-1.75,-31.79,-33.77,0,*53
1507132909.39,12835,13.5,73736.8,-1.73,-31.85,-33.89,0,*56
1507132910.68,12836,13.5,73742.0,-1.73,-31.85,-33.89,0,*55
1507132911.94,12837,13.5,73740.5,-1.75,-31.91,-33.73,0,*52
1507132913.2,12838,13.5,73736.3,-1.75,-31.91,-33.77,0,*59
1507132914.43,12839,13.5,73736.5,-1.75,-32.07,-33.95,0,*58
1507132915.67,12840,13.5,73740.8,-1.77,-32.13,-33.95,0,*51
1507132916.95,12841,13.5,73738.0,-1.77,-31.91,-33.73,0,*51
1507132918.24,12842,13.5,73728.5,-1.77,-31.95,-33.89,0,*53
1507132919.53,12843,13.5,73740.0,-1.77,-31.95,-33.77,0,*53
1507132920.82,12844,13.5,73732.0,-1.77,-32.07,-33.77,0,*5C
1507132922.03,12845,13.5,73710.5,-1.81,-32.01,-33.83,0,*59
1507132923.29,12846,13.5,73718.8,-1.81,-32.07,-34.01,0,*51
1507132924.54,12847,13.5,73726.3,-1.81,-32.07,-33.89,0,*57
1507132925.83,12848,13.5,73728.8,-1.77,-31.95,-33.77,0,*58
1507132927.07,12849,13.5,73734.5,-1.81,-32.01,-33.73,0,*5A
1507132928.3,12850,13.5,73732.0,-1.81,-31.95,-33.83,0,*53
1507132929.55,12851,13.5,73736.8,-1.81,-32.07,-33.89,0,*50
1507132930.81,12852,13.5,73728.8,-1.81,-32.19,-33.73,0,*59
1507132932.03,12853,13.5,73726.0,-1.81,-32.19,-33.83,0,*57
1507132933.29,12854,13.5,73720.3,-1.81,-32.07,-33.73,0,*50
1507132934.58,12855,13.5,73728.5,-1.83,-32.19,-33.73,0,*5C
1507132935.86,12856,13.5,73732.3,-1.83,-32.07,-33.73,0,*50
1507132937.07,12857,13.5,73732.0,-1.81,-32.01,-33.55,0,*51
1507132938.28,12858,13.5,73730.0,-1.81,-32.01,-33.55,0,*5E
1507132939.51,12859,13.5,73732.8,-1.81,-31.91,-33.55,0,*55
1507132940.77,12860,13.5,73734.0,-1.83,-31.91,-33.37,0,*59
1507132942.05,12861,13.5,73736.8,-1.83,-31.91,-33.49,0,*51
1507132943.32,12862,13.5,73740.5,-1.83,-32.01,-33.49,0,*58
1507132944.58,12863,13.5,73734.8,-1.83,-31.91,-33.37,0,*5A
1507132945.84,12864,13.5,73726.0,-1.83,-32.01,-33.49,0,*5E
1507132947.08,12865,13.5,73740.5,-1.83,-32.01,-33.37,0,*56
1507132948.34,12866,13.5,73734.8,-1.83,-31.91,-33.37,0,*5F
1507132949.59,12867,13.5,73732.3,-1.83,-32.01,-33.37,0,*54
1507132950.85,12868,13.5,73732.5,-1.83,-31.91,-33.37,0,*51
1507132952.13,12869,13.5,73724.5,-1.83,-32.07,-33.49,0,*55
1507132953.42,12870,13.5,73718.0,-1.83,-31.91,-33.31,0,*5E
1507132954.71,12871,13.44,73716.0,-1.83,-31.91,-33.27,0,*58
1507132956.0,12872,13.5,73718.8,-1.83,-31.73,-33.31,0,*50
1507132957.29,12873,13.5,73714.5,-1.83,-32.07,-33.31,0,*51
1507132958.53,12874,13.5,73714.5,-1.83,-32.01,-33.37,0,*56
1507132959.76,12875,13.5,73712.3,-1.85,-32.07,-33.37,0,*57
1507132961.05,12876,13.44,73712.8,-1.83,-32.07,-33.31,0,*54
1507132962.3,12877,13.5,73718.3,-1.83,-32.29,-33.55,0,*5B
1507132963.54,12878,13.5,73714.8,-1.83,-32.39,-33.55,0,*55
1507132964.76,12879,13.5,73706.3,-1.85,-32.35,-33.73,0,*5A
1507132965.97,12880,13.5,73704.5,-1.85,-32.35,-33.61,0,*5F
1507132967.18,12881,13.44,73702.5,-1.85,-32.69,-34.07,0,*50
1507132968.44,12882,13.5,73704.3,-1.83,-32.75,-34.07,0,*58
1507132969.66,12883,13.5,73704.0,-1.85,-32.85,-34.25,0,*50
1507132970.89,12884,13.5,73700.5,-1.85,-32.85,-34.41,0,*55
1507132972.12,12885,13.5,73704.5,-1.85,-32.79,-34.13,0,*50
1507132973.32,12886,13.5,73712.0,-1.85,-32.69,-34.07,0,*57
1507132974.55,12887,13.5,73722.0,-1.87,-32.69,-33.95,0,*58
1507132975.76,12888,13.5,73718.8,-1.89,-32.69,-34.13,0,*50
1507132976.99,12889,13.5,73720.3,-1.89,-32.39,-33.77,0,*51
1507132978.19,12890,13.5,73724.8,-1.89,-32.39,-33.95,0,*55
1507132979.47,12891,13.5,73732.5,-1.87,-32.63,-33.89,0,*58
1507132980.67,12892,13.5,73728.8,-1.89,-32.51,-33.95,0,*59
1507132981.95,12893,13.5,73728.5,-1.91,-32.63,-34.01,0,*5A
1507132983.21,12894,13.5,73732.0,-1.91,-32.57,-33.89,0,*5D
1507132984.41,12895,13.5,73734.8,-1.89,-32.57,-33.95,0,*58
1507132985.62,12896,13.5,73732.8,-1.89,-32.57,-33.83,0,*5C
1507132986.9,12897,13.5,73732.3,-1.91,-32.63,-34.01,0,*5E
1507132988.16,12898,13.44,73730.8,-1.91,-32.75,-34.07,0,*50
1507132989.41,12899,13.5,73736.5,-1.91,-32.79,-34.07,0,*5D
1507132990.67,12900,13.5,73738.3,-1.91,-32.75,-34.07,0,*50
1507132991.9,12901,13.5,73740.5,-1.93,-32.79,-34.07,0,*5F
1507132993.15,12902,13.44,73746.3,-1.93,-32.79,-34.19,0,*53
1507132994.43,12903,13.5,73750.3,-1.91,-32.75,-34.19,0,*5C
1507132995.66,12904,13.5,73750.3,-1.93,-32.79,-34.07,0,*5A
1507132996.86,12905,13.5,73748.3,-1.93,-32.91,-34.07,0,*5D
1507132998.08,12906,13.5,73750.5,-1.93,-32.91,-34.19,0,*51
1507132999.32,12907,13.44,73748.0,-1.95,-32.97,-34.25,0,*5F
1507133000.54,12908,13.5,73748.0,-1.93,-32.97,-34.25,0,*56
1507133001.73,12909,13.5,73748.3,-1.93,-32.91,-34.25,0,*51
1507133002.99,12910,13.5,73746.5,-1.95,-32.85,-34.13,0,*5F
1507133004.25,12911,13.5,73744.3,-1.95,-32.85,-34.07,0,*5B
1507133005.47,12912,13.5,73754.0,-1.97,-32.85,-34.25,0,*5A
1507133006.69,12913,13.5,73752.5,-1.97,-32.85,-34.07,0,*5B
1507133007.92,12914,13.5,73754.5,-1.97,-32.79,-34.07,0,*5F
1507133009.17,12915,13.5,73752.0,-1.97,-32.63,-33.89,0,*54
1507133010.43,12916,13.5,73746.0,-1.99,-32.69,-33.77,0,*52
1507133011.66,12917,13.5,73752.0,-1.97,-32.79,-33.95,0,*50
1507133012.88,12918,13.5,73754.0,-1.97,-32.79,-34.07,0,*53
1507133014.17,12919,13.5,73756.8,-1.99,-32.85,-34.01,0,*59
1507133015.46,12920,13.5,73758.5,-1.99,-32.85,-34.01,0,*53
1507133016.71,12921,13.5,73768.8,-1.99,-32.75,-33.95,0,*57
1507133017.94,12922,13.5,73776.0,-1.99,-32.91,-33.95,0,*5E
1507133019.19,12923,13.5,73776.5,-1.99,-32.91,-34.01,0,*55
1507133020.48,12924,13.5,73774.8,-1.99,-32.45,-33.43,0,*5A
1507133021.73,12925,13.5,73758.5,-1.99,-31.51,-32.69,0,*54
1507133023.0,12926,13.5,73750.0,-1.99,-31.61,-32.69,0,*54
1507133024.25,12927,13.5,73754.8,-1.99,-32.29,-33.55,0,*54
1507133025.51,12928,13.5,73756.8,-1.99,-32.69,-33.61,0,*58
1507133026.79,12929,13.5,73760.3,-1.99,-32.75,-33.77,0,*53
1507133028.02,12930,13.5,73750.3,-1.99,-32.57,-33.67,0,*5A
1507133029.25,12931,13.5,73746.0,-1.99,-32.35,-33.55,0,*5E
1507133030.51,12932,13.5,73740.5,-1.99,-32.01,-33.09,0,*53
1507133031.77,12933,13.44,73728.3,-1.99,-31.11,-32.01,0,*59
1507133032.96,12934,13.5,73724.3,-1.97,-31.05,-32.13,0,*56
1507133034.23,12935,13.5,73712.8,-1.95,-31.57,-32.51,0,*54
1507133035.48,12936,13.5,73718.0,-1.95,-31.01,-31.95,0,*5F
1507133036.74,12937,13.5,73726.8,-1.95,-31.17,-32.29,0,*5D
1507133038.02,12938,13.5,73736.5,-1.91,-31.23,-32.19,0,*52
1507133039.28,12939,13.5,73726.8,-1.91,-30.83,-31.85,0,*5E
1507133040.56,12940,13.5,73736.8,-1.91,-30.95,-31.85,0,*57
1507133041.85,12941,13.5,73738.0,-1.91,-31.11,-32.19,0,*5D
1507133043.06,12942,13.5,73756.0,-1.89,-31.79,-32.69,0,*5E
1507133044.27,12943,13.5,73746.0,-1.89,-31.33,-32.51,0,*5A
1507133045.48,12944,13.44,73722.5,-1.89,-31.33,-32.51,0,*5D
1507133046.72,12945,13.5,73738.3,-1.89,-31.67,-32.75,0,*5B
1507133047.94,12946,13.5,73742.3,-1.89,-31.51,-32.57,0,*5D
1507133049.2,12947,13.5,73726.8,-1.87,-31.23,-32.35,0,*53
1507133050.43,12948,13.5,73734.5,-1.89,-31.79,-32.75,0,*59
1507133051.65,12949,13.44,73734.0,-1.89,-31.45,-32.51,0,*51
1507133052.93,12950,13.44,73728.0,-1.87,-31.11,-32.07,0,*55
1507133054.16,12951,13.5,73716.5,-1.87,-31.05,-32.13,0,*54
1507133055.42,12952,13.5,73718.5,-1.87,-31.57,-32.51,0,*56
1507133056.65,12953,13.5,73724.8,-1.85,-31.57,-32.51,0,*55
1507133057.91,12954,13.5,73702.5,-1.83,-31.39,-32.57,0,*5A
1507133059.17,12955,13.5,73686.0,-1.85,-31.73,-32.79,0,*5F
1507133060.42,12956,13.5,73706.3,-1.83,-31.67,-32.79,0,*5F
1507133061.66,12957,13.5,73696.3,-1.85,-31.73,-32.69,0,*5C
1507133062.92,12958,13.5,73724.8,-1.85,-31.73,-32.85,0,*51
1507133064.21,12959,13.5,73738.5,-1.83,-32.19,-33.31,0,*57
1507133065.47,12960,13.5,73734.3,-1.83,-32.39,-33.31,0,*5F
1507133066.72,12961,13.44,73736.5,-1.83,-32.29,-33.37,0,*59
1507133067.98,12962,13.5,73730.8,-1.87,-32.07,-33.15,0,*52
1507133069.24,12963,13.5,73734.3,-1.87,-31.95,-33.21,0,*5C
1507133070.46,12964,13.5,73734.3,-1.87,-32.35,-33.55,0,*51
1507133071.71,12965,13.5,73736.8,-1.87,-32.07,-33.21,0,*52
1507133072.94,12966,13.5,73732.8,-1.87,-32.23,-33.37,0,*50
1507133074.19,12967,13.5,73738.8,-1.87,-32.13,-33.31,0,*54
1507133075.42,12968,13.5,73738.3,-1.87,-32.35,-33.37,0,*59
1507133076.64,12969,13.5,73738.3,-1.87,-32.51,-33.55,0,*5E
1507133077.89,12970,13.5,73742.3,-1.87,-32.45,-33.55,0,*53
1507133079.14,12971,13.5,73744.5,-1.87,-32.35,-33.43,0,*52
1507133080.37,12972,13.5,73744.8,-1.89,-32.35,-33.43,0,*5F
1507133081.6,12973,13.5,73748.3,-1.89,-32.35,-33.49,0,*54
1507133082.82,12974,13.44,73744.3,-1.89,-32.35,-33.49,0,*53
1507133084.02,12975,13.5,73746.5,-1.89,-32.35,-33.37,0,*5B
1507133085.25,12976,13.5,73746.5,-1.89,-32.39,-33.49,0,*5D
1507133086.53,12977,13.5,73726.5,-1.87,-32.29,-33.43,0,*59
1507133087.75,12978,13.5,73728.3,-1.89,-32.35,-33.49,0,*5F
1507133089.0,12979,13.44,73724.0,-1.89,-32.29,-33.43,0,*59
1507133090.22,12980,13.5,73732.8,-1.89,-32.35,-33.61,0,*52
1507133091.47,12981,13.44,73718.3,-1.91,-32.45,-33.55,0,*5A
1507133092.73,12982,13.5,73696.5,-1.91,-32.45,-33.55,0,*59
1507133094.01,12983,13.5,73674.5,-1.91,-31.39,-32.45,0,*50
1507133095.3,12984,13.5,73692.0,-1.91,-31.23,-32.19,0,*55
1507133096.5,12985,13.44,73716.0,-1.89,-31.17,-32.13,0,*50
1507133097.7,12986,13.5,73720.8,-1.89,-31.67,-32.57,0,*54
1507133098.93,12987,13.5,73710.5,-1.87,-31.29,-32.23,0,*52
1507133100.19,12988,13.5,73708.3,-1.83,-30.67,-31.51,0,*54
1507133101.4,12989,13.5,73682.8,-1.85,-30.67,-31.45,0,*56
1507133102.61,12990,13.44,73694.3,-1.85,-30.83,-31.45,0,*54
1507133103.84,12991,13.5,73690.0,-1.81,-31.01,-31.85,0,*56
1507133105.12,12992,13.5,73706.5,-1.77,-30.51,-31.23,0,*54
1507133106.39,12993,13.44,73704.0,-1.77,-30.33,-31.11,0,*50
1507133107.65,12994,13.5,73694.3,-1.77,-30.33,-31.11,0,*57
1507133108.93,12995,13.5,73686.3,-1.77,-30.51,-31.11,0,*52
1507133110.17,12996,13.5,73686.0,-1.73,-30.27,-30.83,0,*5E
1507133111.43,12997,13.5,73716.3,-1.73,-30.51,-31.29,0,*5F
1507133112.66,12998,13.5,73706.0,-1.73,-30.33,-31.05,0,*5A
1507133113.88,12999,13.5,73706.5,-1.69,-30.45,-31.33,0,*54
1507133115.12,13000,13.5,73734.3,-1.71,-30.67,-31.51,0,*51
1507133116.42,13001,13.5,73740.5,-1.69,-31.11,-32.07,0,*59
1507133117.67,13002,13.5,73730.8,-1.69,-31.01,-31.95,0,*53
1507133118.91,13003,13.5,73724.3,-1.69,-30.83,-31.67,0,*54
1507133120.16,13004,13.44,73722.5,-1.69,-31.01,-31.85,0,*54
1507133121.43,13005,13.5,73712.5,-1.67,-31.11,-32.07,0,*53
1507133122.66,13006,13.5,73714.5,-1.67,-31.01,-31.85,0,*58
1507133123.92,13007,13.5,73732.0,-1.65,-31.11,-32.01,0,*55
1507133125.13,13008,13.44,73734.0,-1.67,-31.45,-32.35,0,*5E
1507133126.37,13009,13.5,73724.8,-1.67,-31.39,-32.39,0,*58
1507133127.63,13010,13.5,73694.8,-1.65,-31.45,-32.45,0,*52
1507133128.87,13011,13.5,73694.0,-1.67,-31.61,-32.39,0,*5C
1507133130.1,13012,13.5,73702.5,-1.67,-31.51,-32.57,0,*54
1507133131.34,13013,13.5,73708.8,-1.67,-31.17,-32.07,0,*52
1507133132.6,13014,13.5,73724.0,-1.65,-31.57,-32.51,0,*50
1507133133.89,13015,13.5,73716.0,-1.65,-31.91,-32.97,0,*51
1507133135.15,13016,13.44,73706.3,-1.67,-32.07,-33.09,0,*5A
1507133136.39,13017,13.5,73716.5,-1.65,-32.01,-33.03,0,*55
1507133137.6,13018,13.5,73722.5,-1.67,-32.01,-33.03,0,*58
1507133138.84,13019,13.5,73726.0,-1.67,-32.01,-33.09,0,*53
1507133140.13,13020,13.5,73726.3,-1.69,-32.07,-33.09,0,*51
1507133141.34,13021,13.5,73726.8,-1.67,-32.23,-33.15,0,*55
1507133142.57,13022,13.5,73734.8,-1.69,-32.23,-33.15,0,*58
1507133143.86,13023,13.5,73730.5,-1.69,-32.19,-33.27,0,*51
1507133145.09,13024,13.5,73722.3,-1.71,-32.07,-33.15,0,*51
1507133146.36,13025,13.5,73710.5,-1.69,-31.79,-32.85,0,*5B
1507133147.62,13026,13.5,73728.8,-1.69,-31.95,-33.03,0,*55
1507133148.89,13027,13.5,73722.5,-1.69,-32.01,-33.09,0,*50
1507133150.15,13028,13.5,73716.0,-1.69,-32.01,-33.09,0,*5F
1507133151.39,13029,13.5,73712.3,-1.71,-32.01,-33.09,0,*57
1507133152.68,13030,13.44,73716.3,-1.69,-32.07,-33.09,0,*50
1507133153.94,13031,13.5,73710.8,-1.69,-32.07,-33.15,0,*5C
1507133155.23,13032,13.5,73718.0,-1.69,-32.07,-33.09,0,*52
1507133156.44,13033,13.5,73726.0,-1.71,-32.13,-33.21,0,*55
1507133157.64,13034,13.44,73722.0,-1.71,-32.23,-33.21,0,*51
1507133158.88,13035,13.5,73732.0,-1.71,-32.45,-33.37,0,*57
1507133160.16,13036,13.5,73724.5,-1.73,-32.29,-33.49,0,*55
1507133161.39,13037,13.5,73728.0,-1.71,-32.39,-33.31,0,*58
1507133162.65,13038,13.5,73718.5,-1.73,-32.23,-33.31,0,*5E
1507133163.9,13039,13.5,73724.3,-1.73,-32.39,-33.49,0,*5B
1507133165.16,13040,13.5,73718.5,-1.75,-32.45,-33.61,0,*52
1507133166.39,13041,13.5,73716.0,-1.75,-32.51,-33.73,0,*55
1507133167.62,13042,13.5,73712.3,-1.75,-32.51,-33.61,0,*55
1507133168.86,13043,13.44,73712.5,-1.75,-32.69,-33.89,0,*59
1507133170.15,13044,13.5,73730.3,-1.77,-32.63,-33.77,0,*57
1507133171.41,13045,13.5,73732.8,-1.81,-32.75,-34.01,0,*5E
1507133172.67,13046,13.5,73740.8,-1.81,-32.75,-33.89,0,*5A
1507133173.93,13047,13.44,73734.0,-1.81,-32.75,-34.01,0,*5C
1507133175.19,13048,13.5,73732.5,-1.81,-32.79,-34.01,0,*5F
1507133176.44,13049,13.5,73738.5,-1.81,-32.79,-34.19,0,*57
1507133177.63,13050,13.5,73732.0,-1.81,-32.91,-34.07,0,*56
1507133178.86,13051,13.5,73730.8,-1.81,-32.79,-34.07,0,*51
1507133180.15,13052,13.5,73732.8,-1.83,-32.79,-34.01,0,*56
1507133181.44,13053,13.5,73746.5,-1.83,-32.79,-34.01,0,*57
1507133182.7,13054,13.5,73750.0,-1.83,-32.75,-33.83,0,*51
1507133183.91,13055,13.44,73746.8,-1.85,-32.69,-33.95,0,*5C
1507133185.16,13056,13.5,73740.3,-1.85,-32.63,-33.77,0,*59
1507133186.41,13057,13.5,73746.5,-1.87,-32.63,-33.55,0,*5A
1507133187.69,13058,13.5,73724.5,-1.87,-31.95,-33.31,0,*5D
1507133188.95,13059,13.5,73732.3,-1.85,-32.07,-33.31,0,*56
1507133190.17,13060,13.5,73728.8,-1.87,-32.35,-33.55,0,*5D
1507133191.4,13061,13.5,73732.3,-1.85,-32.51,-33.73,0,*58
1507133192.6,13062,13.5,73738.5,-1.85,-32.57,-33.83,0,*52
1507133193.83,13063,13.5,73744.8,-1.85,-32.85,-33.95,0,*5B
1507133195.11,13064,13.5,73746.8,-1.87,-32.79,-33.89,0,*50
1507133196.39,13065,13.5,73736.8,-1.87,-32.79,-33.77,0,*50
1507133197.6,13066,13.44,73736.3,-1.89,-32.69,-33.95,0,*50
1507133198.83,13067,13.5,73744.8,-1.89,-32.75,-33.95,0,*5C
1507133200.08,13068,13.5,73752.8,-1.87,-32.51,-33.77,0,*57
1507133201.31,13069,13.5,73756.3,-1.89,-32.51,-33.77,0,*58
1507133202.52,13070,13.5,73756.8,-1.89,-32.51,-33.67,0,*51
1507133203.8,13071,13.44,73748.8,-1.91,-32.63,-33.73,0,*5D
1507133205.03,13072,13.5,73738.8,-1.91,-32.57,-33.83,0,*56
1507133206.28,13073,13.5,73742.0,-1.91,-32.57,-33.73,0,*58
1507133207.56,13074,13.44,73734.0,-1.91,-32.45,-33.73,0,*5C
1507133208.79,13075,13.5,73746.5,-1.93,-32.45,-33.67,0,*5A
1507133210.05,13076,13.5,73732.0,-1.93,-31.73,-33.09,0,*57
1507133211.3,13077,13.5,73718.3,-1.91,-31.67,-32.97,0,*57
1507133212.5,13078,13.5,73726.0,-1.93,-31.67,-32.91,0,*5C
1507133213.79,13079,13.5,73740.5,-1.91,-32.07,-33.31,0,*51
1507133215.03,13080,13.44,73722.0,-1.91,-32.01,-33.15,0,*57
1507133216.29,13081,13.44,73728.0,-1.91,-31.57,-32.91,0,*5B
1507133217.55,13082,13.5,73720.5,-1.91,-31.73,-32.91,0,*5E
1507133218.84,13083,13.44,73714.0,-1.91,-31.57,-32.75,0,*53
1507133220.12,13084,13.5,73708.3,-1.91,-31.51,-32.63,0,*55
1507133221.38,13085,13.44,73714.0,-1.87,-31.57,-32.69,0,*5F
1507133222.63,13086,13.5,73724.0,-1.87,-31.29,-32.45,0,*5B
1507133223.84,13087,13.44,73724.0,-1.89,-31.33,-32.51,0,*5A
1507133225.11,13088,13.5,73726.3,-1.89,-31.61,-32.75,0,*54
1507133226.31,13089,13.44,73740.0,-1.89,-31.79,-32.91,0,*56
1507133227.59,13090,13.5,73740.0,-1.87,-31.61,-32.97,0,*5F
1507133228.82,13091,13.44,73726.3,-1.89,-31.79,-33.09,0,*5F
1507133230.08,13092,13.44,73734.0,-1.87,-31.91,-33.21,0,*5E
1507133231.31,13093,13.44,73736.8,-1.89,-31.85,-33.03,0,*54
1507133232.59,13094,13.44,73748.5,-1.87,-31.73,-33.09,0,*5E
1507133233.8,13095,13.5,73732.8,-1.89,-31.79,-32.91,0,*5B
1507133235.08,13096,13.5,73726.8,-1.87,-31.73,-32.85,0,*59
1507133236.37,13097,13.44,73730.8,-1.87,-31.73,-32.85,0,*58
1507133237.63,13098,13.44,73724.0,-1.89,-31.95,-33.43,0,*5A
1507133238.89,13099,13.5,73730.0,-1.89,-32.29,-33.43,0,*5F
1507133240.11,13100,13.44,73730.0,-1.89,-32.35,-33.43,0,*53
1507133241.36,13101,13.44,73726.0,-1.89,-32.29,-33.49,0,*55
1507133242.62,13102,13.44,73732.3,-1.87,-32.07,-33.37,0,*5D
1507133243.88,13103,13.44,73724.0,-1.89,-32.19,-33.43,0,*5E
1507133245.09,13104,13.5,73734.8,-1.89,-32.01,-33.21,0,*54
1507133246.33,13105,13.5,73734.3,-1.89,-32.01,-33.27,0,*53
1507133247.59,13106,13.44,73724.8,-1.89,-31.85,-33.09,0,*53
1507133248.82,13107,13.5,73734.0,-1.89,-31.85,-33.03,0,*58
1507133250.08,13108,13.44,73736.5,-1.87,-31.91,-33.21,0,*5C
1507133251.31,13109,13.44,73718.0,-1.89,-32.01,-33.27,0,*5F
1507133252.58,13110,13.44,73716.5,-1.89,-32.19,-33.43,0,*5C
1507133253.82,13111,13.44,73726.8,-1.91,-32.35,-33.49,0,*50
1507133255.08,13112,13.44,73734.8,-1.91,-32.39,-33.49,0,*5F
1507133256.34,13113,13.44,73732.3,-1.91,-32.39,-33.49,0,*5E
1507133257.57,13114,13.44,73734.0,-1.93,-32.39,-33.49,0,*5B
1507133258.82,13115,13.44,73736.3,-1.91,-32.39,-33.49,0,*58
1507133260.08,13116,13.44,73738.3,-1.91,-32.23,-33.43,0,*5A
1507133261.33,13117,13.44,73736.8,-1.91,-32.35,-33.49,0,*56
1507133262.55,13118,13.44,73740.0,-1.93,-32.35,-33.49,0,*5B
1507133263.77,13119,13.44,73744.3,-1.93,-32.35,-33.49,0,*5A
1507133265.0,13120,13.44,73742.5,-1.93,-32.39,-33.49,0,*5C
1507133266.23,13121,13.44,73740.3,-1.93,-32.39,-33.49,0,*5D
1507133267.49,13122,13.44,73744.0,-1.91,-32.35,-33.43,0,*5A
1507133268.71,13123,13.44,73744.0,-1.93,-32.45,-33.55,0,*59
1507133269.91,13124,13.5,73748.0,-1.93,-32.39,-33.55,0,*55
1507133271.14,13125,13.44,73744.3,-1.93,-32.45,-33.67,0,*5E
1507133272.35,13126,13.44,73746.3,-1.93,-32.57,-33.67,0,*5E
1507133273.6,13127,13.5,73752.0,-1.95,-32.51,-33.61,0,*59
1507133274.82,13128,13.44,73748.5,-1.97,-32.51,-33.61,0,*54
1507133276.08,13129,13.44,73752.8,-1.97,-32.63,-33.73,0,*57
1507133277.33,13130,13.44,73760.0,-1.97,-32.63,-33.73,0,*5F
1507133278.55,13131,13.44,73760.3,-1.97,-32.51,-33.61,0,*5C
1507133279.8,13132,13.44,73754.3,-1.97,-32.45,-33.61,0,*5A
1507133281.02,13133,13.44,73748.3,-1.97,-32.45,-33.55,0,*5C
1507133282.24,13134,13.44,73748.8,-1.97,-32.45,-33.55,0,*5B
1507133283.47,13135,13.44,73748.0,-1.97,-32.45,-33.55,0,*5A
1507133284.72,13136,13.5,73752.5,-1.99,-32.57,-33.61,0,*53
1507133285.95,13137,13.44,73754.5,-1.99,-32.57,-33.67,0,*54
1507133287.19,13138,13.44,73742.3,-1.99,-32.51,-33.67,0,*5D
1507133288.41,13139,13.44,73740.5,-1.97,-32.29,-33.37,0,*58
1507133289.67,13140,13.44,73742.3,-1.99,-32.19,-33.37,0,*5B
1507133290.94,13141,13.44,73742.3,-1.99,-32.01,-33.27,0,*52
1507133292.17,13142,13.44,73726.0,-1.99,-32.13,-33.21,0,*54
1507133293.4,13143,13.44,73732.5,-1.97,-32.07,-33.21,0,*5E
1507133294.64,13144,13.44,73734.8,-1.99,-32.01,-33.21,0,*51
1507133295.9,13145,13.44,73738.3,-1.99,-31.95,-33.03,0,*5E
1507133297.16,13146,13.5,73722.8,-1.99,-31.85,-32.91,0,*56
1507133298.36,13147,13.44,73702.0,-2.01,-31.45,-32.57,0,*53
1507133299.62,13148,13.44,73718.0,-2.01,-31.51,-32.75,0,*59
1507133300.84,13149,13.44,73724.5,-1.97,-31.79,-32.97,0,*52
1507133302.05,13150,13.44,73730.0,-1.97,-32.13,-33.21,0,*59
1507133303.24,13151,13.44,73732.0,-1.97,-32.39,-33.55,0,*53
1507133304.47,13152,13.44,73720.5,-1.97,-32.45,-33.55,0,*5B